Weather History for Perry, IA

Change the Weather History Date:

Friday, May 31, 2013

  Actual Average Record
Temperature  
Mean Temperature 68 °F -  
Max Temperature 77 °F 75 °F 94 °F (1988)
Min Temperature 59 °F 52 °F 39 °F (1972)
Cooling Degree Days 3    
Growing Degree Days 18 (Base 50)    
Moisture  
Dew Point 58 °F    
Average Humidity 69    
Maximum Humidity 93    
Minimum Humidity 40    
Precipitation  
Precipitation 0.00 in - - ()
Sea Level Pressure  
Sea Level Pressure 29.65 in    
Wind  
Wind Speed 13 mph (SSW)    
Max Wind Speed 25 mph    
Max Gust Speed 34 mph    
Visibility 9 miles    
Events      
Averages and records for this station are not official NWS values.
T = Trace of Precipitation, MM = Missing Value Source: NWS Daily Summary

Daily Weather History Graph

Daily Weather History Graph

Search for Another Location

Airport:

Trip Planner

Search our weather history database for the weather conditions in past years. The results will help you decide how hot, cold, wet, or windy it might be!

Date:

Astronomy

May. 31, 2013 Rise Set
Actual Time 5:44 AM CDT 8:44 PM CDT
Civil Twilight 5:11 AM CDT 9:18 PM CDT
Nautical Twilight 4:28 AM CDT 10:00 PM CDT
Astronomical Twilight 3:38 AM CDT 10:50 PM CDT
Moon 1:15 AM CDT (5/31) 1:05 PM CDT (5/31)
Length of Visible Light 16h 07m
Length of Day
15h 00m
Waning Gibbous, 51% of the Moon is Illuminated
May 31
Waning Gibbous
May 31
Last Quarter
Jun 8
New
Jun 16
First Quarter
Jun 23
Full

Hourly Weather History & Observations

Time (CDT) Temp. Dew Point Humidity Pressure Visibility Wind Dir Wind Speed Gust Speed Precip Events Conditions
12:15 AM 62.1 °F 54.9 °F 77% 29.67 in 10.0 mi SSW 13.8 mph - N/A   Scattered Clouds
12:35 AM 61.9 °F 55.4 °F 79% 29.64 in 10.0 mi South 9.2 mph - N/A   Scattered Clouds
12:55 AM 61.0 °F 55.6 °F 82% 29.64 in 10.0 mi SSW 5.8 mph - N/A   Clear
1:15 AM 60.8 °F 54.9 °F 81% 29.64 in 10.0 mi SW 5.8 mph - N/A   Clear
1:35 AM 60.1 °F 54.7 °F 82% 29.65 in 10.0 mi South 9.2 mph - N/A   Clear
1:55 AM 60.1 °F 54.0 °F 80% 29.65 in 10.0 mi South 12.7 mph - N/A   Clear
2:15 AM 60.1 °F 54.1 °F 81% 29.66 in 10.0 mi South 10.4 mph - N/A   Clear
2:35 AM 59.7 °F 54.5 °F 83% 29.66 in 10.0 mi South 11.5 mph - N/A   Clear
2:55 AM 59.9 °F 55.4 °F 85% 29.66 in 10.0 mi SSW 10.4 mph - N/A   Clear
3:15 AM 60.4 °F 55.4 °F 83% 29.66 in 10.0 mi South 13.8 mph - N/A   Clear
3:35 AM 61.3 °F 55.8 °F 82% 29.66 in 10.0 mi South 17.3 mph - N/A   Clear
3:55 AM 62.1 °F 57.9 °F 86% 29.64 in 10.0 mi South 17.3 mph - N/A   Clear
4:15 AM 62.2 °F 58.6 °F 88% 29.65 in 10.0 mi SSW 16.1 mph - N/A   Scattered Clouds
4:35 AM 63.0 °F 59.5 °F 89% 29.66 in 7.0 mi SSW 13.8 mph - N/A   Overcast
4:55 AM 62.2 °F 59.0 °F 89% 29.64 in 7.0 mi South 11.5 mph - N/A   Scattered Clouds
5:15 AM 61.7 °F 58.5 °F 89% 29.64 in 5.0 mi SSW 5.8 mph - N/A   Clear
5:35 AM 60.8 °F 58.1 °F 91% 29.63 in 4.0 mi South 4.6 mph - N/A   Clear
5:55 AM 60.4 °F 58.1 °F 92% 29.64 in 2.5 mi South 6.9 mph - N/A   Clear
6:15 AM 59.9 °F 57.4 °F 91% 29.64 in 1.5 mi SSE 8.1 mph - N/A   Mist
6:35 AM 60.1 °F 57.6 °F 91% 29.65 in 1.5 mi SSE 4.6 mph - N/A   Mostly Cloudy
6:55 AM 61.0 °F 58.8 °F 93% 29.65 in 2.0 mi SSE 10.4 mph - N/A   Overcast
7:15 AM 61.7 °F 59.2 °F 91% 29.65 in 4.0 mi South 11.5 mph - N/A   Overcast
7:35 AM 62.6 °F 59.9 °F 91% 29.64 in 5.0 mi South 12.7 mph - N/A   Mostly Cloudy
7:55 AM 63.5 °F 59.7 °F 87% 29.64 in 10.0 mi South 12.7 mph - N/A   Scattered Clouds
8:15 AM 64.9 °F 59.9 °F 84% 29.65 in 10.0 mi South 12.7 mph - N/A   Clear
8:35 AM 65.7 °F 60.3 °F 83% 29.66 in 10.0 mi South 15.0 mph - N/A   Clear
8:55 AM 67.3 °F 61.0 °F 80% 29.66 in 10.0 mi South 13.8 mph - N/A   Mostly Cloudy
9:15 AM 68.4 °F 61.3 °F 78% 29.66 in 10.0 mi SSW 11.5 mph - N/A   Scattered Clouds
9:35 AM 70.3 °F 60.1 °F 70% 29.66 in 10.0 mi SSW 16.1 mph - N/A   Scattered Clouds
9:55 AM 71.6 °F 58.5 °F 63% 29.66 in 10.0 mi SSW 15.0 mph - N/A   Scattered Clouds
10:15 AM 73.2 °F 56.7 °F 56% 29.66 in 10.0 mi SW 13.8 mph - N/A   Clear
10:35 AM 73.4 °F 56.1 °F 55% 29.66 in 10.0 mi SW 16.1 mph - N/A   Clear
10:55 AM 74.1 °F 54.3 °F 50% 29.67 in 10.0 mi SW 15.0 mph - N/A   Clear
11:15 AM 74.1 °F 54.7 °F 51% 29.69 in 10.0 mi SW 17.3 mph 23.0 mph N/A   Mostly Cloudy
11:35 AM 73.9 °F 54.9 °F 51% 29.69 in 10.0 mi SW 15.0 mph - N/A   Mostly Cloudy
11:55 AM 74.7 °F 54.5 °F 49% 29.70 in 10.0 mi WSW 17.3 mph - N/A   Scattered Clouds
12:15 PM 74.5 °F 53.2 °F 47% 29.69 in 10.0 mi SW 13.8 mph - N/A   Scattered Clouds
12:35 PM 75.4 °F 54.3 °F 48% 29.68 in 10.0 mi SSW 15.0 mph - N/A   Scattered Clouds
12:55 PM 75.2 °F 53.1 °F 46% 29.68 in 10.0 mi SW 19.6 mph - N/A   Clear
1:15 PM 75.4 °F 52.7 °F 45% 29.68 in 10.0 mi SW 16.1 mph - N/A   Clear
1:35 PM 76.1 °F 52.5 °F 44% 29.67 in 10.0 mi SW 18.4 mph 23.0 mph N/A   Clear
1:55 PM 76.3 °F 52.7 °F 44% 29.67 in 10.0 mi SSW 17.3 mph 23.0 mph N/A   Clear
2:15 PM 76.8 °F 53.8 °F 45% 29.66 in 10.0 mi SSW 17.3 mph - N/A   Clear
2:35 PM 77.2 °F 54.9 °F 46% 29.66 in 10.0 mi SSW 18.4 mph 24.2 mph N/A   Scattered Clouds
2:55 PM 77.9 °F 53.8 °F 43% 29.66 in 10.0 mi SW 19.6 mph 23.0 mph N/A   Clear
3:15 PM 77.5 °F 53.6 °F 43% 29.65 in 10.0 mi SSW 21.9 mph 28.8 mph N/A   Clear
3:35 PM 77.7 °F 51.3 °F 40% 29.64 in 10.0 mi SW 19.6 mph 26.5 mph N/A   Clear
3:55 PM 75.4 °F 59.7 °F 58% 29.64 in 10.0 mi SSW 25.3 mph 32.2 mph N/A   Mostly Cloudy
4:15 PM 75.9 °F 58.6 °F 55% 29.64 in 10.0 mi SSW 24.2 mph 29.9 mph N/A   Mostly Cloudy
4:35 PM 76.5 °F 59.9 °F 56% 29.64 in 10.0 mi South 21.9 mph 27.6 mph N/A   Scattered Clouds
4:55 PM 75.9 °F 59.0 °F 56% 29.64 in 10.0 mi South 25.3 mph 34.5 mph N/A   Scattered Clouds
5:15 PM 74.8 °F 58.3 °F 56% 29.64 in 10.0 mi SSW 25.3 mph 28.8 mph N/A   Scattered Clouds
5:35 PM 75.4 °F 59.5 °F 58% 29.63 in 10.0 mi SSW 20.7 mph 27.6 mph N/A   Scattered Clouds
5:55 PM 75.2 °F 59.4 °F 58% 29.64 in 10.0 mi SSW 23.0 mph 26.5 mph N/A   Scattered Clouds
6:15 PM 74.7 °F 59.7 °F 60% 29.63 in 10.0 mi SSW 19.6 mph - N/A   Scattered Clouds
6:35 PM 74.8 °F 60.4 °F 61% 29.63 in 10.0 mi SSW 18.4 mph - N/A   Scattered Clouds
6:55 PM 74.7 °F 59.9 °F 60% 29.61 in 10.0 mi SSW 18.4 mph - N/A   Clear
7:15 PM 73.9 °F 60.3 °F 62% 29.62 in 10.0 mi South 18.4 mph 21.9 mph N/A   Clear
7:35 PM 73.4 °F 60.8 °F 65% 29.63 in 10.0 mi South 17.3 mph - N/A   Clear
7:55 PM 72.7 °F 60.4 °F 65% 29.63 in 10.0 mi South 16.1 mph - N/A   Clear
8:15 PM 71.6 °F 60.6 °F 68% 29.62 in 10.0 mi SSW 13.8 mph - N/A   Clear
8:35 PM 70.2 °F 60.8 °F 72% 29.62 in 10.0 mi South 11.5 mph - N/A   Clear
8:55 PM 69.3 °F 61.0 °F 75% 29.62 in 10.0 mi South 9.2 mph - N/A   Clear
9:15 PM 68.5 °F 61.0 °F 77% 29.62 in 10.0 mi South 10.4 mph - N/A   Clear
9:35 PM 68.4 °F 60.8 °F 77% 29.64 in 10.0 mi South 13.8 mph - N/A   Clear
9:55 PM 68.5 °F 60.8 °F 76% 29.65 in 10.0 mi South 15.0 mph - N/A   Mostly Cloudy
10:15 PM 68.9 °F 60.8 °F 75% 29.66 in 10.0 mi South 18.4 mph 23.0 mph N/A   Mostly Cloudy
10:35 PM 68.4 °F 61.3 °F 78% 29.65 in 10.0 mi SSW 16.1 mph - N/A   Overcast
10:55 PM 68.2 °F 61.2 °F 78% 29.65 in 10.0 mi SW 16.1 mph - N/A   Mostly Cloudy
11:15 PM 68.0 °F 61.0 °F 78% 29.66 in 10.0 mi SW 12.7 mph - N/A   Mostly Cloudy
11:35 PM 66.6 °F 59.9 °F 79% 29.65 in 10.0 mi SW 11.5 mph - N/A   Scattered Clouds
11:55 PM 65.7 °F 57.7 °F 76% 29.64 in 10.0 mi WSW 10.4 mph - N/A   Clear